Regional Weather Roundup
Issued by NWS Cleveland, OH

Home | Current Version | Previous Version | Graphics & Text | Print | Product List | Glossary On
Versions: 1 2 3 4 5 6 7 8 9 10 11 12 13 14 15 16 17 18 19 20 21 22 23 24 25 26 27 28 29 30 31 32 33 34 35 36 37 38 39 40 41 42 43 44 45 46 47 48 49 50
000
ASUS41 KCLE 111810
RWRCLE
OHIO REGIONAL WEATHER ROUNDUP
NATIONAL WEATHER SERVICE WILMINGTON, OH
100 PM EST THU FEB 11 2016

NOTE: "FAIR" INDICATES FEW OR NO CLOUDS BELOW 12,000 FEET WITH NO
SIGNIFICANT WEATHER AND/OR OBSTRUCTIONS TO VISIBILITY.

OHZ001>008-015>018-024>027-034-035-043-044-111900-
   NORTHWEST OHIO

CITY           SKY/WX    TMP DP  RH WIND       PRES   REMARKS
DEFIANCE       PTSUNNY   21   6  52 NW10      30.26F WCI  10
FINDLAY        CLOUDY    20   7  57 W10       30.23F WCI   9
TOLEDO EXPRESS CLOUDY    19   5  54 W13       30.23F WCI   6
TOLEDO EXEC    CLOUDY    20   1  43 NW17G25   30.24F WCI   5
LIMA           CLOUDY    19   8  62 NW9       30.23F WCI   8
$$

OHZ009>014-019>023-028>033-038-089-111900-
   NORTHEAST OHIO

CITY           SKY/WX    TMP DP  RH WIND       PRES   REMARKS
CLE-HOPKINS    LGT SNOW  16   9  74 W9        30.22S WCI   4
CLE-LAKEFRONT  PTSUNNY   19   5  54 W20G31    30.20R WCI   3
CUY CO. ARPT   CLOUDY    12   3  67 W12G21    30.18R WCI  -2
LORAIN-ELYRIA  LGT SNOW  16   9  74 W14       30.21S WCI   2
ASHTABULA      CLOUDY    16   1  51 NW17G30   30.14S WCI   0
AKRON-CANTON   LGT SNOW  17   4  56 W18G29    30.15F WCI   1
WOOSTER        FAIR      16   4  59 W15       30.18F WCI   1
MANSFIELD      CLOUDY    16   4  59 W15       30.18F WCI   1
YOUNGSTOWN     LGT SNOW  15   8  73 NW14      30.12S WCI   0
$$

OHZ042-051>053-060>062-070>072-077>081-111900-
  SOUTHWEST OHIO

CITY           SKY/WX    TMP DP  RH WIND       PRES   REMARKS
CINC-COVINGTON FAIR      21   4  47 CALM      30.27F
CINC-LUNKEN    PTSUNNY   22   5  48 CALM      30.31F
HAMILTON       FAIR      22   4  46 NW8       30.30F WCI  12
DAYTON         CLOUDY    21   6  52 NW10      30.25F WCI  10
WRIGHT-PAT AFB CLOUDY    21   4  48 W12       30.25F WCI   9
DAYTON GENERAL PTSUNNY   21   3  45 W7        30.25F WCI  12
WILMINGTON     FAIR      20   6  55 W8        30.24F WCI  10
$$

OHZ036-037-039>041-045>050-054>059-063>069-073>076-082>088-111900-
  CENTRAL AND SOUTHEAST OHIO

CITY           SKY/WX    TMP DP  RH WIND       PRES   REMARKS
COLUMBUS       CLOUDY    20   5  52 W15       30.24F WCI   6
OSU AIRPORT    PTSUNNY   19   9  65 W12       30.23F WCI   7
BOLTON FIELD   PTSUNNY   19   9  63 NW9       30.24F WCI   9
RICKENBACK AFB CLOUDY    20   9  62 W13       30.25F WCI   7
NEWARK         LGT SNOW  19   9  65 W5        30.23S WCI  12
MARION         CLOUDY    20   5  52 NW12      30.22F WCI   8
LANCASTER      FAIR      19   9  65 SW12      30.25F WCI   7
ZANESVILLE     CLOUDY    21   3  45 W12       30.22F WCI   9
NEW PHILLY     CLOUDY    17   1  49 NW14      30.21F WCI   3
$$



USA.gov is the U.S. government's official web portal to all federal, state and local government web resources and services.